Meteo18 Weather Cam more information Meteo18 Weather Cam


Thunder radar more information blitzortung!


Rain radar more information rain snow radar



Select another period ( hide this area )

Units Period Custom range Directly to
Metric English Both
Daily Weekly Monthly Yearly
use both date-selectors for a custom range
previous Day
With this date

WeatherUnderground graphs for this period ( click here )


Daily Summary for Thursday 21 March 2019
Time Temp. ( °C ) Dew pt. ( °C ) Wind ( km/h ) from Gust ( km/h ) Pressure ( hPa ) Humid.( % ) Rainrate ( cm )
High15,7 3,4 25,9 NE ( 755/1878 ) 29,0 1032,7 85 -
Average9,7 1,7 7,2 NE #74/260 12,6 1031,0 61 -
Low4,0 -1,5 -   0,0 1029,0 31 -
Daily Tabular details for Thursday 21 March 2019
Time Temp. ( °C ) Dew pt. ( °C ) Wind ( km/h ) from Gust ( km/h ) Pressure ( hPa ) Humid.( % ) Rainrate ( cm )
00:04 7,6 3,3 6,4 North 9,7 1032,7 74 -
00:08 7,6 3,3 6,4 NNW 9,7 1032,7 74 -
00:14 7,6 3,3 1,4 NE 6,4 1032,7 74 -
00:18 7,5 3,4 4,7 NNE 8,0 1032,7 75 -
00:24 7,4 3,3 3,2 North 8,0 1032,7 75 -
00:28 7,3 3,2 9,7 NNW 9,7 1032,7 75 -
00:34 7,3 3,2 4,7 NNW 8,0 1032,7 75 -
00:38 7,3 3,2 1,4 NNW 11,3 1032,7 75 -
00:44 7,2 3,3 6,4 North 9,7 1032,7 76 -
00:48 7,2 3,3 7,9 NNW 11,3 1032,7 76 -
00:54 7,2 3,3 6,4 North 9,7 1032,4 76 -
00:58 7,1 3,2 3,2 North 8,0 1032,7 76 -
01:04 7,0 3,1 6,4 NE 8,0 1032,7 76 -
01:08 6,8 2,9 3,2 North 4,8 1032,7 76 -
01:14 6,4 2,7 3,2 NE 4,8 1032,4 77 -
01:18 6,2 2,6 1,4 NW 4,8 1032,7 78 -
01:24 6,0 2,6 1,4 NNW 4,8 1032,7 79 -
01:28 5,9 2,7 1,4 NW 3,2 1032,7 80 -
01:34 5,9 2,7 1,4 NNE 4,8 1032,4 80 -
01:38 5,9 2,7 3,2 North 4,8 1032,7 80 -
01:44 6,1 2,9 1,4 NNW 4,8 1032,7 80 -
01:48 6,0 2,8   Calm 4,8 1032,7 80 -
01:54 5,9 2,7 3,2 North 3,2 1032,7 80 -
01:58 5,9 2,7 4,7 North 8,0 1032,7 80 -
02:04 5,9 2,7 3,2 North 4,8 1032,4 80 -
02:06 5,9 2,7 3,2 NNE 4,8 1032,7 80 -
02:14 5,8 2,6 1,4 NNE 4,8 1032,4 80 -
02:18 5,8 2,6   Calm 4,8 1032,4 80 -
02:24 5,7 2,7   Calm 4,8 1032,4 81 -
02:28 5,7 2,7 3,2 North 4,8 1032,4 81 -
02:34 5,7 2,7 3,2 NNW 6,4 1032,4 81 -
02:38 5,7 2,7 3,2 NNW 6,4 1032,4 81 -
02:44 5,7 2,7 6,4 NE 6,4 1032,1 81 -
02:48 5,6 2,6 3,2 North 6,4 1032,4 81 -
02:54 5,6 2,6 1,4 North 8,0 1032,4 81 -
02:58 5,6 2,6 7,9 NNW 9,7 1032,1 81 -
03:04 5,7 2,7   Calm 9,7 1032,1 81 -
03:08 5,7 2,7 3,2 NNW 9,7 1032,1 81 -
03:14 5,7 2,7 3,2 NW 9,7 1032,1 81 -
03:18 5,6 2,6 6,4 NNW 9,7 1031,7 81 -
03:24 5,6 2,6 3,2 NNE 6,4 1032,1 81 -
03:28 5,6 2,6 4,7 North 8,0 1031,7 81 -
03:34 5,5 2,5 3,2 NNE 8,0 1031,7 81 -
03:38 5,5 2,5 3,2 NNW 6,4 1031,7 81 -
03:44 5,4 2,6 4,7 NNW 6,4 1031,7 82 -
03:48 5,3 2,5 3,2 North 6,4 1031,7 82 -
03:54 5,2 2,4 3,2 NNW 6,4 1031,7 82 -
03:58 5,2 2,4 3,2 North 6,4 1031,7 82 -
04:04 5,1 2,5 1,4 NNE 9,7 1031,7 83 -
04:08 5,1 2,5 1,4 NNW 6,4 1031,7 83 -
04:14 5,1 2,5 6,4 NNE 8,0 1031,7 83 -
04:18 5,1 2,5 6,4 NW 8,0 1031,7 83 -
04:24 5,1 2,3 6,4 NNE 9,7 1031,7 82 -
04:28 5,0 2,2 6,4 North 9,7 1031,7 82 -
04:34 5,0 2,2   Calm 6,4 1031,7 82 -
04:38 4,9 2,1 6,4 North 6,4 1031,7 82 -
04:44 5,0 2,2 1,4 NNE 4,8 1031,7 82 -
04:48 4,9 2,1 1,4 NE 3,2 1031,7 82 -
04:54 4,9 2,1 1,4 NNE 4,8 1031,7 82 -
04:58 5,0 2,2 6,4 North 9,7 1031,7 82 -
05:04 5,1 2,1 6,4 NNE 8,0 1031,7 81 -
05:08 5,1 2,3 1,4 North 9,7 1031,7 82 -
05:14 4,9 2,1 4,7 NNE 6,4 1031,7 82 -
05:18 4,9 2,1 1,4 North 8,0 1031,7 82 -
05:24 4,8 2,0 4,7 NNW 6,4 1031,7 82 -
05:28 4,8 2,2 6,4 NNE 8,0 1031,7 83 -
05:34 4,7 2,1 3,2 NNE 9,7 1031,7 83 -
05:38 4,7 2,1 3,2 NW 9,7 1031,7 83 -
05:44 4,7 2,2 1,4 North 9,7 1031,7 84 -
05:48 4,7 2,2 4,7 NNE 6,4 1031,7 84 -
05:54 4,6 2,1 3,2 North 8,0 1031,7 84 -
05:58 4,5 2,0 6,4 North 6,4 1031,7 84 -
06:04 4,4 1,9   Calm 6,4 1031,7 84 -
06:08 4,3 2,0 4,7 North 4,8 1031,7 85 -
06:14 4,4 2,1 1,4 North 3,2 1031,7 85 -
06:18 4,3 2,0   Calm 4,8 1031,7 85 -
06:24 4,3 2,0 1,4 NNW 4,8 1031,7 85 -
06:28 4,2 1,9   Calm 4,8 1031,7 85 -
06:34 4,2 1,9 3,2 NNW 6,4 1031,7 85 -
06:38 4,3 2,0 3,2 NE 8,0 1031,7 85 -
06:44 4,3 2,0 1,4 NNW 8,0 1032,1 85 -
06:48 4,2 1,7 3,2 North 4,8 1032,1 84 -
06:52 4,1 1,6 3,2 NNE 3,2 1032,1 84 -
06:59 4,0 1,7 4,7 NNE 4,8 1032,1 85 -
07:03 4,0 1,7 3,2 NNW 4,8 1032,1 85 -
07:09 4,1 1,8 1,4 NE 3,2 1032,1 85 -
07:13 4,1 1,8   Calm 1,6 1032,1 85 -
07:19 4,3 2,0   Calm 1,6 1032,1 85 -
07:23 4,5 2,2   Calm   1032,4 85 -
07:29 4,8 2,3   Calm   1032,4 84 -
07:33 4,7 2,1   Calm 1,6 1032,4 83 -
07:39 4,4 1,8   Calm 4,8 1032,4 83 -
07:43 4,3 1,8   Calm   1032,4 84 -
07:49 4,3 1,8   Calm 4,8 1032,4 84 -
07:53 4,4 2,1 1,4 North 1,6 1032,4 85 -
07:59 4,7 2,4 3,2 North 4,8 1032,4 85 -
08:03 4,9 2,4 6,4 North 9,7 1032,4 84 -
08:09 5,3 2,8 4,7 NNE 9,7 1032,1 84 -
08:13 5,4 2,9 3,2 North 8,0 1032,1 84 -
08:19 5,7 3,0 4,7 NE 8,0 1032,4 83 -
08:23 5,7 2,9 3,2 NE 8,0 1032,1 82 -
08:29 5,9 2,9 1,4 North 6,4 1032,4 81 -
08:33 6,1 2,9 4,7 NNE 8,0 1032,1 80 -
08:39 6,3 3,1   Calm 4,8 1032,4 80 -
08:43 6,5 2,9 7,9 NNE 9,7 1032,4 78 -
08:49 6,8 3,1 6,4 NE 6,4 1032,4 77 -
08:53 6,9 2,6 6,4 NNE 8,0 1032,4 74 -
08:59 7,2 2,7 1,4 ENE 6,4 1032,4 73 -
09:03 7,6 2,9 6,4 North 6,4 1032,4 72 -
09:09 7,7 2,2 4,7 NE 9,7 1032,1 68 -
09:13 7,7 1,7 13,0 ENE 17,7 1032,1 66 -
09:19 7,9 2,2 9,7 NE 12,9 1032,1 67 -
09:23 8,0 1,8 3,2 ENE 14,5 1032,1 65 -
09:29 8,1 1,7 16,3 NE 16,1 1032,1 64 -
09:33 8,1 2,3 7,9 NNE 12,9 1032,1 67 -
09:39 8,2 1,8 7,9 NE 12,9 1032,1 64 -
09:43 8,2 2,0 6,4 NE 14,5 1032,1 65 -
09:49 8,4 2,0 6,4 NE 11,3 1032,1 64 -
09:53 8,4 2,2 13,0 NE 14,5 1032,1 65 -
09:59 8,7 2,3 11,1 NNE 16,1 1031,7 64 -
10:03 8,9 2,9 3,2 NNE 11,3 1031,7 66 -
10:09 9,1 2,9 7,9 NE 11,3 1031,7 65 -
10:13 9,2 2,7 16,3 NNE 17,7 1031,7 64 -
10:19 9,3 2,6 6,4 NNE 11,3 1031,7 63 -
10:23 9,3 2,4 7,9 NE 17,7 1031,7 62 -
10:29 9,7 3,0 6,4 ENE 14,5 1031,7 63 -
10:33 9,8 3,1 4,7 NNE 12,9 1031,7 63 -
10:39 9,8 2,9 9,7 North 17,7 1031,7 62 -
10:43 10,1 3,4 4,7 ENE 11,3 1031,7 63 -
10:49 10,4 3,2 9,7 ENE 14,5 1031,7 61 -
10:53 10,7 2,8 16,3 ENE 17,7 1031,7 58 -
10:59 10,7 2,8 7,9 ENE 16,1 1031,7 58 -
11:03 10,9 1,7 6,4 ENE 19,3 1031,7 53 -
11:09 11,1 1,9 9,7 NE 20,9 1031,7 53 -
11:13 11,2 2,5 14,3 East 22,5 1031,7 55 -
11:19 11,1 1,6 16,3 North 27,4 1031,7 52 -
11:23 11,2 2,7 9,7 ENE 17,7 1031,7 56 -
11:29 11,4 2,4 7,9 East 14,5 1031,4 54 -
11:33 11,6 2,3 9,7 NNE 17,7 1031,4 53 -
11:39 11,8 2,5 13,0 NE 20,9 1031,4 53 -
11:43 11,8 2,0 9,7 NE 17,7 1031,4 51 -
11:49 11,9 1,5 4,7 NE 24,1 1031,4 49 -
11:53 12,1 1,4 6,4 ENE 24,1 1031,4 48 -
11:59 12,2 1,2 13,0 NE 25,7 1031,4 47 -
12:03 12,3 1,3 13,0 NNE 19,3 1031,4 47 -
12:09 12,4 1,4 9,7 East 19,3 1031,0 47 -
12:13 12,5 0,6 20,9 NE 27,4 1031,0 44 -
12:19 12,5 0,9 6,4 NE 22,5 1031,0 45 -
12:23 12,6 0,3 19,5 NE 22,5 1031,0 43 -
12:29 12,8 1,5 16,3 NE 20,9 1031,0 46 -
12:33 12,8 0,5 19,5 NNE 27,4 1031,0 43 -
12:39 12,9 0,6 20,9 NE 20,9 1031,0 43 -
12:43 13,2 1,2 13,0 ENE 20,9 1031,0 44 -
12:49 13,3 1,3 20,9 NE 20,9 1031,0 44 -
12:53 13,4 1,1 4,7 NE 19,3 1031,0 43 -
12:59 13,7 1,0 4,7 ENE 16,1 1031,0 42 -
13:03 13,8 0,4 16,3 NNE 20,9 1031,0 40 -
13:09 13,8 0,8 9,7 NE 19,3 1030,7 41 -
13:13 13,7 0,3 13,0 ENE 25,7 1030,7 40 -
13:19 13,6 -0,1 16,3 NE 24,1 1030,7 39 -
13:23 13,9 1,2 9,7 NNE 19,3 1030,7 42 -
13:29 14,1 1,0 22,7 NE 22,5 1030,4 41 -
13:33 14,1 0,7 7,9 ENE 22,5 1030,4 40 -
13:39 14,2 0,8 9,7 NE 19,3 1030,4 40 -
13:43 14,4 1,6 7,9 ENE 24,1 1030,4 42 -
13:49 14,4 0,6 9,7 NE 14,5 1030,4 39 -
13:53 14,6 0,8 16,3 NE 19,3 1030,4 39 -
13:59 14,6 0,4 13,0 NE 20,9 1030,0 38 -
14:03 14,7 0,5 16,3 NNE 19,3 1030,0 38 -
14:07 14,8 1,3 11,1 NNE 12,9 1030,0 40 -
14:14 14,9 1,4 13,0 NE 16,1 1030,0 40 -
14:18 15,1 0,5 25,9 North 25,7 1030,0 37 -
14:24 15,0 0,8 6,4 East 22,5 1030,0 38 -
14:28 15,0 0,8 16,3 NNE 17,7 1030,0 38 -
14:34 15,1 1,2 13,0 NE 16,1 1029,7 39 -
14:38 15,2 1,7 16,3 NE 17,7 1029,7 40 -
14:44 15,3 0,7 6,4 NNE 19,3 1029,7 37 -
14:48 15,4 1,5 7,9 NNW 17,7 1029,7 39 -
14:54 15,6 -0,2 9,7 NE 22,5 1029,3 34 -
14:58 15,3 -0,9 20,9 NE 29,0 1029,3 33 -
15:04 15,4 0,4 11,1 ENE 17,7 1029,3 36 -
15:08 15,6 0,2 16,3 NNE 22,5 1029,3 35 -
15:14 15,6 0,6 11,1 NE 14,5 1029,3 36 -
15:18 15,5 -0,7 4,7 NNW 20,9 1029,3 33 -
15:24 15,7 -0,5 14,3 NNE 25,7 1029,3 33 -
15:28 15,7 -0,1 11,1 ENE 20,9 1029,3 34 -
15:34 15,6 -0,6 11,1 NE 17,7 1029,3 33 -
15:38 15,7 -0,1 19,5 NNE 22,5 1029,3 34 -
15:44 15,6 -1,5 20,9 NE 24,1 1029,3 31 -
15:48 15,6 -0,2 9,7 NE 20,9 1029,3 34 -
15:54 15,7 -0,5 14,3 ENE 22,5 1029,3 33 -
15:58 15,5 -0,3 14,3 ENE 25,7 1029,3 34 -
16:04 15,5 0,5 14,3 ENE 20,9 1029,3 36 -
16:08 15,5 0,1 9,7 East 19,3 1029,3 35 -
16:14 15,5 0,1 9,7 NE 17,7 1029,3 35 -
16:18 15,6 1,3 4,7 NNE 14,5 1029,3 38 -
16:24 15,6 1,3 1,4 ENE 14,5 1029,3 38 -
16:28 15,6 0,2 9,7 NE 22,5 1029,3 35 -
16:34 15,6 0,6 13,0 NNE 24,1 1029,3 36 -
16:38 15,5 0,5 6,4 ENE 20,9 1029,3 36 -
16:44 15,5 0,5 9,7 East 22,5 1029,3 36 -
16:48 15,4 -0,4 11,1 East 20,9 1029,3 34 -
16:54 15,4 0,4 14,3 ENE 22,5 1029,0 36 -
16:58 15,3 0,7 9,7 NE 17,7 1029,0 37 -
17:04 15,3 1,1 7,9 ENE 16,1 1029,0 38 -
17:08 15,3 0,7 7,9 NE 17,7 1029,0 37 -
17:14 15,3 0,7 7,9 NE 16,1 1029,0 37 -
17:18 15,3 0,3 7,9 ENE 17,7 1029,0 36 -
17:24 15,2 0,6 6,4 ENE 16,1 1029,0 37 -
17:28 15,2 1,3 11,1 NNE 12,9 1029,0 39 -
17:34 15,2 1,3 7,9 ENE 17,7 1029,3 39 -
17:38 15,1 1,2 6,4 NE 19,3 1029,0 39 -
17:44 15,0 1,2 14,3 ENE 20,9 1029,0 39 -
17:48 14,9 1,1 7,9 ENE 12,9 1029,3 39 -
17:54 14,9 1,4 6,4 NNE 14,5 1029,3 40 -
17:58 14,8 1,3 17,7 NE 19,3 1029,3 40 -
18:04 14,7 1,2 14,3 NE 17,7 1029,0 40 -
18:08 14,6 1,1 9,7 NE 22,5 1029,0 40 -
18:14 14,5 1,4 7,9 NE 19,3 1029,0 41 -
18:18 14,4 1,0 7,9 NE 20,9 1029,0 40 -
18:24 14,3 1,2 13,0 NE 14,5 1029,3 41 -
18:28 14,2 1,1 7,9 NE 19,3 1029,0 41 -
18:34 14,1 1,0 9,7 NE 16,1 1029,3 41 -
18:38 14,0 0,9 11,1 NNE 19,3 1029,3 41 -
18:44 13,8 0,8 14,3 NE 14,5 1029,3 41 -
18:48 13,7 1,0 6,4 NE 11,3 1029,3 42 -
18:54 13,4 1,1 4,7 North 9,7 1029,3 43 -
18:58 13,2 1,2 6,4 NNE 14,5 1029,3 44 -
19:04 13,1 1,1 11,1 NE 14,5 1029,3 44 -
19:08 13,1 1,1 6,4 NNE 12,9 1029,3 44 -
19:14 12,9 1,2 13,0 NE 16,1 1029,3 45 -
19:18 12,9 0,9 6,4 NE 11,3 1029,3 44 -
19:24 12,7 1,1 9,7 NNE 11,3 1029,3 45 -
19:28 12,6 1,3 9,7 NNE 12,9 1029,3 46 -
19:34 12,3 1,3 4,7 NE 9,7 1029,3 47 -
19:38 12,3 1,3 6,4 NE 12,9 1029,3 47 -
19:44 12,1 1,4 9,7 NE 14,5 1029,3 48 -
19:48 12,1 1,4 11,1 NE 14,5 1029,3 48 -
19:54 12,1 1,4 6,4 NE 14,5 1029,3 48 -
19:58 12,1 1,4 7,9 NNE 14,5 1029,3 48 -
20:04 11,9 1,2 11,1 NNE 12,9 1029,3 48 -
20:08 11,9 1,2 13,0 NE 16,1 1029,3 48 -
20:14 11,6 1,5 6,4 NE 14,5 1029,3 50 -
20:18 11,3 1,2 9,7 NNE 11,3 1029,7 50 -
20:24 11,0 1,5 4,7 NNE 8,0 1029,7 52 -
20:28 10,8 1,6 3,2 NNE 9,7 1029,7 53 -
20:34 10,5 1,3 6,4 North 9,7 1029,7 53 -
20:38 10,4 1,5 1,4 ENE 4,8 1029,3 54 -
20:44 10,3 1,4 4,7 North 4,8 1029,7 54 -
20:48 10,1 1,5 4,7 NNE 6,4 1029,7 55 -
20:54 9,9 1,5 4,7 North 6,4 1029,7 56 -
20:58 9,8 1,7 3,2 NW 8,0 1029,7 57 -
21:04 9,8 1,4 4,7 North 8,0 1029,7 56 -
21:08 9,8 1,7 4,7 NNE 6,4 1029,7 57 -
21:14 9,8 1,7 7,9 NNE 8,0 1029,7 57 -
21:18 9,8 1,7 6,4 NNE 8,0 1029,7 57 -
21:24 9,5 1,6 6,4 NE 6,4 1029,7 58 -
21:28 9,4 1,6 4,7 North 8,0 1029,7 58 -
21:34 9,4 1,6 4,7 NNE 9,7 1029,7 58 -
21:38 9,5 1,6 6,4 North 8,0 1029,7 58 -
Daily Summary for Thursday 21 March 2019
Time Temp. ( °C ) Dew pt. ( °C ) Wind ( km/h ) from Gust ( km/h ) Pressure ( hPa ) Humid.( % ) Rainrate ( cm )
High15,7 3,4 25,9 NE ( 755/1878 ) 29,0 1032,7 85 -
Average9,7 1,7 7,2 NE #74/260 12,6 1031,0 61 -
Low4,0 -1,5 -   0,0 1029,0 31 -
Daily Tabular details for Thursday 21 March 2019
Time Temp. ( °C ) Dew pt. ( °C ) Wind ( km/h ) from Gust ( km/h ) Pressure ( hPa ) Humid.( % ) Rainrate ( cm )
00:04 7,6 3,3 6,4 North 9,7 1032,7 74 -
00:08 7,6 3,3 6,4 NNW 9,7 1032,7 74 -
00:14 7,6 3,3 1,4 NE 6,4 1032,7 74 -
00:18 7,5 3,4 4,7 NNE 8,0 1032,7 75 -
00:24 7,4 3,3 3,2 North 8,0 1032,7 75 -
00:28 7,3 3,2 9,7 NNW 9,7 1032,7 75 -
00:34 7,3 3,2 4,7 NNW 8,0 1032,7 75 -
00:38 7,3 3,2 1,4 NNW 11,3 1032,7 75 -
00:44 7,2 3,3 6,4 North 9,7 1032,7 76 -
00:48 7,2 3,3 7,9 NNW 11,3 1032,7 76 -
00:54 7,2 3,3 6,4 North 9,7 1032,4 76 -
00:58 7,1 3,2 3,2 North 8,0 1032,7 76 -
01:04 7,0 3,1 6,4 NE 8,0 1032,7 76 -
01:08 6,8 2,9 3,2 North 4,8 1032,7 76 -
01:14 6,4 2,7 3,2 NE 4,8 1032,4 77 -
01:18 6,2 2,6 1,4 NW 4,8 1032,7 78 -
01:24 6,0 2,6 1,4 NNW 4,8 1032,7 79 -
01:28 5,9 2,7 1,4 NW 3,2 1032,7 80 -
01:34 5,9 2,7 1,4 NNE 4,8 1032,4 80 -
01:38 5,9 2,7 3,2 North 4,8 1032,7 80 -
01:44 6,1 2,9 1,4 NNW 4,8 1032,7 80 -
01:48 6,0 2,8   Calm 4,8 1032,7 80 -
01:54 5,9 2,7 3,2 North 3,2 1032,7 80 -
01:58 5,9 2,7 4,7 North 8,0 1032,7 80 -
02:04 5,9 2,7 3,2 North 4,8 1032,4 80 -
02:06 5,9 2,7 3,2 NNE 4,8 1032,7 80 -
02:14 5,8 2,6 1,4 NNE 4,8 1032,4 80 -
02:18 5,8 2,6   Calm 4,8 1032,4 80 -
02:24 5,7 2,7   Calm 4,8 1032,4 81 -
02:28 5,7 2,7 3,2 North 4,8 1032,4 81 -
02:34 5,7 2,7 3,2 NNW 6,4 1032,4 81 -
02:38 5,7 2,7 3,2 NNW 6,4 1032,4 81 -
02:44 5,7 2,7 6,4 NE 6,4 1032,1 81 -
02:48 5,6 2,6 3,2 North 6,4 1032,4 81 -
02:54 5,6 2,6 1,4 North 8,0 1032,4 81 -
02:58 5,6 2,6 7,9 NNW 9,7 1032,1 81 -
03:04 5,7 2,7   Calm 9,7 1032,1 81 -
03:08 5,7 2,7 3,2 NNW 9,7 1032,1 81 -
03:14 5,7 2,7 3,2 NW 9,7 1032,1 81 -
03:18 5,6 2,6 6,4 NNW 9,7 1031,7 81 -
03:24 5,6 2,6 3,2 NNE 6,4 1032,1 81 -
03:28 5,6 2,6 4,7 North 8,0 1031,7 81 -
03:34 5,5 2,5 3,2 NNE 8,0 1031,7 81 -
03:38 5,5 2,5 3,2 NNW 6,4 1031,7 81 -
03:44 5,4 2,6 4,7 NNW 6,4 1031,7 82 -
03:48 5,3 2,5 3,2 North 6,4 1031,7 82 -
03:54 5,2 2,4 3,2 NNW 6,4 1031,7 82 -
03:58 5,2 2,4 3,2 North 6,4 1031,7 82 -
04:04 5,1 2,5 1,4 NNE 9,7 1031,7 83 -
04:08 5,1 2,5 1,4 NNW 6,4 1031,7 83 -
04:14 5,1 2,5 6,4 NNE 8,0 1031,7 83 -
04:18 5,1 2,5 6,4 NW 8,0 1031,7 83 -
04:24 5,1 2,3 6,4 NNE 9,7 1031,7 82 -
04:28 5,0 2,2 6,4 North 9,7 1031,7 82 -
04:34 5,0 2,2   Calm 6,4 1031,7 82 -
04:38 4,9 2,1 6,4 North 6,4 1031,7 82 -
04:44 5,0 2,2 1,4 NNE 4,8 1031,7 82 -
04:48 4,9 2,1 1,4 NE 3,2 1031,7 82 -
04:54 4,9 2,1 1,4 NNE 4,8 1031,7 82 -
04:58 5,0 2,2 6,4 North 9,7 1031,7 82 -
05:04 5,1 2,1 6,4 NNE 8,0 1031,7 81 -
05:08 5,1 2,3 1,4 North 9,7 1031,7 82 -
05:14 4,9 2,1 4,7 NNE 6,4 1031,7 82 -
05:18 4,9 2,1 1,4 North 8,0 1031,7 82 -
05:24 4,8 2,0 4,7 NNW 6,4 1031,7 82 -
05:28 4,8 2,2 6,4 NNE 8,0 1031,7 83 -
05:34 4,7 2,1 3,2 NNE 9,7 1031,7 83 -
05:38 4,7 2,1 3,2 NW 9,7 1031,7 83 -
05:44 4,7 2,2 1,4 North 9,7 1031,7 84 -
05:48 4,7 2,2 4,7 NNE 6,4 1031,7 84 -
05:54 4,6 2,1 3,2 North 8,0 1031,7 84 -
05:58 4,5 2,0 6,4 North 6,4 1031,7 84 -
06:04 4,4 1,9   Calm 6,4 1031,7 84 -
06:08 4,3 2,0 4,7 North 4,8 1031,7 85 -
06:14 4,4 2,1 1,4 North 3,2 1031,7 85 -
06:18 4,3 2,0   Calm 4,8 1031,7 85 -
06:24 4,3 2,0 1,4 NNW 4,8 1031,7 85 -
06:28 4,2 1,9   Calm 4,8 1031,7 85 -
06:34 4,2 1,9 3,2 NNW 6,4 1031,7 85 -
06:38 4,3 2,0 3,2 NE 8,0 1031,7 85 -
06:44 4,3 2,0 1,4 NNW 8,0 1032,1 85 -
06:48 4,2 1,7 3,2 North 4,8 1032,1 84 -
06:52 4,1 1,6 3,2 NNE 3,2 1032,1 84 -
06:59 4,0 1,7 4,7 NNE 4,8 1032,1 85 -
07:03 4,0 1,7 3,2 NNW 4,8 1032,1 85 -
07:09 4,1 1,8 1,4 NE 3,2 1032,1 85 -
07:13 4,1 1,8   Calm 1,6 1032,1 85 -
07:19 4,3 2,0   Calm 1,6 1032,1 85 -
07:23 4,5 2,2   Calm   1032,4 85 -
07:29 4,8 2,3   Calm   1032,4 84 -
07:33 4,7 2,1   Calm 1,6 1032,4 83 -
07:39 4,4 1,8   Calm 4,8 1032,4 83 -
07:43 4,3 1,8   Calm   1032,4 84 -
07:49 4,3 1,8   Calm 4,8 1032,4 84 -
07:53 4,4 2,1 1,4 North 1,6 1032,4 85 -
07:59 4,7 2,4 3,2 North 4,8 1032,4 85 -
08:03 4,9 2,4 6,4 North 9,7 1032,4 84 -
08:09 5,3 2,8 4,7 NNE 9,7 1032,1 84 -
08:13 5,4 2,9 3,2 North 8,0 1032,1 84 -
08:19 5,7 3,0 4,7 NE 8,0 1032,4 83 -
08:23 5,7 2,9 3,2 NE 8,0 1032,1 82 -
08:29 5,9 2,9 1,4 North 6,4 1032,4 81 -
08:33 6,1 2,9 4,7 NNE 8,0 1032,1 80 -
08:39 6,3 3,1   Calm 4,8 1032,4 80 -
08:43 6,5 2,9 7,9 NNE 9,7 1032,4 78 -
08:49 6,8 3,1 6,4 NE 6,4 1032,4 77 -
08:53 6,9 2,6 6,4 NNE 8,0 1032,4 74 -
08:59 7,2 2,7 1,4 ENE 6,4 1032,4 73 -
09:03 7,6 2,9 6,4 North 6,4 1032,4 72 -
09:09 7,7 2,2 4,7 NE 9,7 1032,1 68 -
09:13 7,7 1,7 13,0 ENE 17,7 1032,1 66 -
09:19 7,9 2,2 9,7 NE 12,9 1032,1 67 -
09:23 8,0 1,8 3,2 ENE 14,5 1032,1 65 -
09:29 8,1 1,7 16,3 NE 16,1 1032,1 64 -
09:33 8,1 2,3 7,9 NNE 12,9 1032,1 67 -
09:39 8,2 1,8 7,9 NE 12,9 1032,1 64 -
09:43 8,2 2,0 6,4 NE 14,5 1032,1 65 -
09:49 8,4 2,0 6,4 NE 11,3 1032,1 64 -
09:53 8,4 2,2 13,0 NE 14,5 1032,1 65 -
09:59 8,7 2,3 11,1 NNE 16,1 1031,7 64 -
10:03 8,9 2,9 3,2 NNE 11,3 1031,7 66 -
10:09 9,1 2,9 7,9 NE 11,3 1031,7 65 -
10:13 9,2 2,7 16,3 NNE 17,7 1031,7 64 -
10:19 9,3 2,6 6,4 NNE 11,3 1031,7 63 -
10:23 9,3 2,4 7,9 NE 17,7 1031,7 62 -
10:29 9,7 3,0 6,4 ENE 14,5 1031,7 63 -
10:33 9,8 3,1 4,7 NNE 12,9 1031,7 63 -
10:39 9,8 2,9 9,7 North 17,7 1031,7 62 -
10:43 10,1 3,4 4,7 ENE 11,3 1031,7 63 -
10:49 10,4 3,2 9,7 ENE 14,5 1031,7 61 -
10:53 10,7 2,8 16,3 ENE 17,7 1031,7 58 -
10:59 10,7 2,8 7,9 ENE 16,1 1031,7 58 -
11:03 10,9 1,7 6,4 ENE 19,3 1031,7 53 -
11:09 11,1 1,9 9,7 NE 20,9 1031,7 53 -
11:13 11,2 2,5 14,3 East 22,5 1031,7 55 -
11:19 11,1 1,6 16,3 North 27,4 1031,7 52 -
11:23 11,2 2,7 9,7 ENE 17,7 1031,7 56 -
11:29 11,4 2,4 7,9 East 14,5 1031,4 54 -
11:33 11,6 2,3 9,7 NNE 17,7 1031,4 53 -
11:39 11,8 2,5 13,0 NE 20,9 1031,4 53 -
11:43 11,8 2,0 9,7 NE 17,7 1031,4 51 -
11:49 11,9 1,5 4,7 NE 24,1 1031,4 49 -
11:53 12,1 1,4 6,4 ENE 24,1 1031,4 48 -
11:59 12,2 1,2 13,0 NE 25,7 1031,4 47 -
12:03 12,3 1,3 13,0 NNE 19,3 1031,4 47 -
12:09 12,4 1,4 9,7 East 19,3 1031,0 47 -
12:13 12,5 0,6 20,9 NE 27,4 1031,0 44 -
12:19 12,5 0,9 6,4 NE 22,5 1031,0 45 -
12:23 12,6 0,3 19,5 NE 22,5 1031,0 43 -
12:29 12,8 1,5 16,3 NE 20,9 1031,0 46 -
12:33 12,8 0,5 19,5 NNE 27,4 1031,0 43 -
12:39 12,9 0,6 20,9 NE 20,9 1031,0 43 -
12:43 13,2 1,2 13,0 ENE 20,9 1031,0 44 -
12:49 13,3 1,3 20,9 NE 20,9 1031,0 44 -
12:53 13,4 1,1 4,7 NE 19,3 1031,0 43 -
12:59 13,7 1,0 4,7 ENE 16,1 1031,0 42 -
13:03 13,8 0,4 16,3 NNE 20,9 1031,0 40 -
13:09 13,8 0,8 9,7 NE 19,3 1030,7 41 -
13:13 13,7 0,3 13,0 ENE 25,7 1030,7 40 -
13:19 13,6 -0,1 16,3 NE 24,1 1030,7 39 -
13:23 13,9 1,2 9,7 NNE 19,3 1030,7 42 -
13:29 14,1 1,0 22,7 NE 22,5 1030,4 41 -
13:33 14,1 0,7 7,9 ENE 22,5 1030,4 40 -
13:39 14,2 0,8 9,7 NE 19,3 1030,4 40 -
13:43 14,4 1,6 7,9 ENE 24,1 1030,4 42 -
13:49 14,4 0,6 9,7 NE 14,5 1030,4 39 -
13:53 14,6 0,8 16,3 NE 19,3 1030,4 39 -
13:59 14,6 0,4 13,0 NE 20,9 1030,0 38 -
14:03 14,7 0,5 16,3 NNE 19,3 1030,0 38 -
14:07 14,8 1,3 11,1 NNE 12,9 1030,0 40 -
14:14 14,9 1,4 13,0 NE 16,1 1030,0 40 -
14:18 15,1 0,5 25,9 North 25,7 1030,0 37 -
14:24 15,0 0,8 6,4 East 22,5 1030,0 38 -
14:28 15,0 0,8 16,3 NNE 17,7 1030,0 38 -
14:34 15,1 1,2 13,0 NE 16,1 1029,7 39 -
14:38 15,2 1,7 16,3 NE 17,7 1029,7 40 -
14:44 15,3 0,7 6,4 NNE 19,3 1029,7 37 -
14:48 15,4 1,5 7,9 NNW 17,7 1029,7 39 -
14:54 15,6 -0,2 9,7 NE 22,5 1029,3 34 -
14:58 15,3 -0,9 20,9 NE 29,0 1029,3 33 -
15:04 15,4 0,4 11,1 ENE 17,7 1029,3 36 -
15:08 15,6 0,2 16,3 NNE 22,5 1029,3 35 -
15:14 15,6 0,6 11,1 NE 14,5 1029,3 36 -
15:18 15,5 -0,7 4,7 NNW 20,9 1029,3 33 -
15:24 15,7 -0,5 14,3 NNE 25,7 1029,3 33 -
15:28 15,7 -0,1 11,1 ENE 20,9 1029,3 34 -
15:34 15,6 -0,6 11,1 NE 17,7 1029,3 33 -
15:38 15,7 -0,1 19,5 NNE 22,5 1029,3 34 -
15:44 15,6 -1,5 20,9 NE 24,1 1029,3 31 -
15:48 15,6 -0,2 9,7 NE 20,9 1029,3 34 -
15:54 15,7 -0,5 14,3 ENE 22,5 1029,3 33 -
15:58 15,5 -0,3 14,3 ENE 25,7 1029,3 34 -
16:04 15,5 0,5 14,3 ENE 20,9 1029,3 36 -
16:08 15,5 0,1 9,7 East 19,3 1029,3 35 -
16:14 15,5 0,1 9,7 NE 17,7 1029,3 35 -
16:18 15,6 1,3 4,7 NNE 14,5 1029,3 38 -
16:24 15,6 1,3 1,4 ENE 14,5 1029,3 38 -
16:28 15,6 0,2 9,7 NE 22,5 1029,3 35 -
16:34 15,6 0,6 13,0 NNE 24,1 1029,3 36 -
16:38 15,5 0,5 6,4 ENE 20,9 1029,3 36 -
16:44 15,5 0,5 9,7 East 22,5 1029,3 36 -
16:48 15,4 -0,4 11,1 East 20,9 1029,3 34 -
16:54 15,4 0,4 14,3 ENE 22,5 1029,0 36 -
16:58 15,3 0,7 9,7 NE 17,7 1029,0 37 -
17:04 15,3 1,1 7,9 ENE 16,1 1029,0 38 -
17:08 15,3 0,7 7,9 NE 17,7 1029,0 37 -
17:14 15,3 0,7 7,9 NE 16,1 1029,0 37 -
17:18 15,3 0,3 7,9 ENE 17,7 1029,0 36 -
17:24 15,2 0,6 6,4 ENE 16,1 1029,0 37 -
17:28 15,2 1,3 11,1 NNE 12,9 1029,0 39 -
17:34 15,2 1,3 7,9 ENE 17,7 1029,3 39 -
17:38 15,1 1,2 6,4 NE 19,3 1029,0 39 -
17:44 15,0 1,2 14,3 ENE 20,9 1029,0 39 -
17:48 14,9 1,1 7,9 ENE 12,9 1029,3 39 -
17:54 14,9 1,4 6,4 NNE 14,5 1029,3 40 -
17:58 14,8 1,3 17,7 NE 19,3 1029,3 40 -
18:04 14,7 1,2 14,3 NE 17,7 1029,0 40 -
18:08 14,6 1,1 9,7 NE 22,5 1029,0 40 -
18:14 14,5 1,4 7,9 NE 19,3 1029,0 41 -
18:18 14,4 1,0 7,9 NE 20,9 1029,0 40 -
18:24 14,3 1,2 13,0 NE 14,5 1029,3 41 -
18:28 14,2 1,1 7,9 NE 19,3 1029,0 41 -
18:34 14,1 1,0 9,7 NE 16,1 1029,3 41 -
18:38 14,0 0,9 11,1 NNE 19,3 1029,3 41 -
18:44 13,8 0,8 14,3 NE 14,5 1029,3 41 -
18:48 13,7 1,0 6,4 NE 11,3 1029,3 42 -
18:54 13,4 1,1 4,7 North 9,7 1029,3 43 -
18:58 13,2 1,2 6,4 NNE 14,5 1029,3 44 -
19:04 13,1 1,1 11,1 NE 14,5 1029,3 44 -
19:08 13,1 1,1 6,4 NNE 12,9 1029,3 44 -
19:14 12,9 1,2 13,0 NE 16,1 1029,3 45 -
19:18 12,9 0,9 6,4 NE 11,3 1029,3 44 -
19:24 12,7 1,1 9,7 NNE 11,3 1029,3 45 -
19:28 12,6 1,3 9,7 NNE 12,9 1029,3 46 -
19:34 12,3 1,3 4,7 NE 9,7 1029,3 47 -
19:38 12,3 1,3 6,4 NE 12,9 1029,3 47 -
19:44 12,1 1,4 9,7 NE 14,5 1029,3 48 -
19:48 12,1 1,4 11,1 NE 14,5 1029,3 48 -
19:54 12,1 1,4 6,4 NE 14,5 1029,3 48 -
19:58 12,1 1,4 7,9 NNE 14,5 1029,3 48 -
20:04 11,9 1,2 11,1 NNE 12,9 1029,3 48 -
20:08 11,9 1,2 13,0 NE 16,1 1029,3 48 -
20:14 11,6 1,5 6,4 NE 14,5 1029,3 50 -
20:18 11,3 1,2 9,7 NNE 11,3 1029,7 50 -
20:24 11,0 1,5 4,7 NNE 8,0 1029,7 52 -
20:28 10,8 1,6 3,2 NNE 9,7 1029,7 53 -
20:34 10,5 1,3 6,4 North 9,7 1029,7 53 -
20:38 10,4 1,5 1,4 ENE 4,8 1029,3 54 -
20:44 10,3 1,4 4,7 North 4,8 1029,7 54 -
20:48 10,1 1,5 4,7 NNE 6,4 1029,7 55 -
20:54 9,9 1,5 4,7 North 6,4 1029,7 56 -
20:58 9,8 1,7 3,2 NW 8,0 1029,7 57 -
21:04 9,8 1,4 4,7 North 8,0 1029,7 56 -
21:08 9,8 1,7 4,7 NNE 6,4 1029,7 57 -
21:14 9,8 1,7 7,9 NNE 8,0 1029,7 57 -
21:18 9,8 1,7 6,4 NNE 8,0 1029,7 57 -
21:24 9,5 1,6 6,4 NE 6,4 1029,7 58 -
21:28 9,4 1,6 4,7 North 8,0 1029,7 58 -
21:34 9,4 1,6 4,7 NNE 9,7 1029,7 58 -
21:38 9,5 1,6 6,4 North 8,0 1029,7 58 -

Download your copy of this data-set  here

Our weather-data as stored at Weather Underground. Script developed by Jim McMurry. Adapted for the template by Leuven-Template.eu

You find our weather info also at:

Weather Underground

Equipment we use:

Weather-station
Davis Vue

Weather-program
Meteobridge

Weather-server
Raspberry PI 2 B+

Provider
1 and 1

Davis Vue

Meteobridge

Raspberry PI 2 B+

1 and 1